Airfield :







YOU CAN JOIN US ON...

 
LOGIN :

Register | Disclaimer

   EN    FR    IT 

 









Legend :    VFR   Marginal VFR   IFR   Intensive IFR   Very Intensive IFR
Visi :
Ceiling :
>= 8 km
>= 3000ft
5 to 8 km
1000 to 3000 ft
1500m to 5 km
500 to 1000 ft
800 to 1500m
200 to 500 ft
< 800m
< 200 ft
Symbols :   Thunderstorms  Fog  Heavy snow  Heavy precipitations  Wind > 20 kt






- Airport Elevation : 199 ft
- IATA code : YRQ


CYRQ - Trois-Rivières

CURRENT METAR :
  • 071500Z AUTO VRB03KT 9SM CLR 11/M02 A3001 RMK SLP165

EXPIRED METARs :
  • 071400Z AUTO VRB02KT 9SM CLR 10/M03 A3002 RMK SLP168
  • 071300Z AUTO VRB03KT 9SM CLR 09/M01 A3002 RMK SLP168

TAF TAF CYRQ
Valid from the 07 at 14:00 until the 08 at 02:00 UTC


071340Z 0714/0802 VRB03KT P6SM SKC
FM072100 15007KT P6SM BKN080
BECMG 0800/0802 07008KT OVC080 RMK FCST BASED ON AUTO OBS. NXT FCST BY 072000Z
CZUL FIR / North America



MET'MAP, your aeronautical weather chart ! - Copyright ORBIFLY December 2007 - Disclaimer

ORBIFLY MET'MAP TEAM :

Programming & Development : Alexandra Zaïnal
Concept & original design : Baudouin d'Aumeries
Assistance for programming : Marc-Olivier Méhu
Technical & hardware support : Manuel Goepfert

Contact : metmap@orbifly.com




SOURCES & CREDITS :

   NOAA